Find Starlink 31531

NORAD ID: 59477 Int'l Des: 2024-068 Owner: SPXS Country: US Constellation: starlink operational
LEOCIRCULAR

当前视图

正在加载3D地球...

About Starlink 31531

Starlink 31531 (NORAD 59477) is a starlink constellation satellite (v2 mini) launched Apr 10, 2024 by SPXS of US. It operates in LEO, CIRCULAR orbit with a mass of 730.00 kg.

即将过境

Passes for default location (London). Set your location on the main map for personalized predictions.

高度历史

Loading altitude history...

两行轨道根数

1 59477U 24068Y 26206.55691732 -.00000531 00000-0 -97780-5 0 9993
2 59477 43.0003 280.7635 0001556 295.3591 64.7099 15.27566417130234
Epoch: Jul 25, 2026 • Age: 16 hours

当前状态

高度 484.7 km
远地点 / 近地点 N/A
速度 7.63 km/s
星下点 33.51°N, 61.38°W
发射日期 Apr 10, 2024
运行时间 2.2 years
类型 internet

技术详情

分类 Payload
质量 730.00 kg
干质量 700.00 kg
总质量 730.00 kg
长度 0.30 m
直径 4.10 m
跨度 29.00 m
形状 Box + pan
制造商 SPXS
平台类型 Starlink V2M
阶段状态 In Orbit
所有者/国家 SPXS/US

Most Searched